Location: Ahausen
(50.4985°N, 8.2722°E)
Time: 10:54:40
(UTC+00:00)

Cosmos 2278 Rocket - Pass Details

Date: 18 September 2020
Orbit: 841 x 845 km, 71.0° (Epoch: 25 October)

Event Time Altitude Azimuth Distance (km) Brightness Sun altitude
Exits shadow 23:04:09 26° 327° (NNW) 1,596 4.0 -38.0°
Drops below altitude 10° 23:08:22 10° 15° (NNE) 2,472 5.3 -38.0°
Sets 23:11:14 0° 28° (NNE) 3,410 6.1 -38.1°
